Preview of NWS' New Version of Forecast
This preview is not operational and should not be used for support decisions.

Regional Weather Roundup (RWR)

Issued by National Weather Service (NWS)

                            
000
ASUS46 KPQR 200010
RWROR 

OREGON REGIONAL WEATHER ROUNDUP
NATIONAL WEATHER SERVICE PORTLAND OR
500 PM PDT MON AUG 19 2019

NOTE: "FAIR" INDICATES FEW OR NO CLOUDS BELOW 12,000 FEET WITH
NO SIGNIFICANT WEATHER AND/OR OBSTRUCTIONS TO VISIBILITY.

ORZ001>013-200100-
NORTHWEST OREGON

  
CITY           SKY/WX    TMP DP  RH WIND       PRES   REMARKS
ASTORIA        SUNNY     70  55  59 NW13      30.00F                  
6HR MIN TEMP:  65; 6HR MAX TEMP:  71;                                

TILLAMOOK      SUNNY     70  54  56 NW18G24   30.00S                  
NEWPORT        SUNNY     68  59  73 N14       30.02R                  
FLORENCE       FAIR      66  54  63 NW13G18   29.97S                  
PORTLAND       MOSUNNY   80  52  37 NW7       29.94F                  
6HR MIN TEMP:  69; 6HR MAX TEMP:  81;                                

VANCOUVER WA   SUNNY     79  51  37 W12       29.94F                  
6HR MIN TEMP:  67; 6HR MAX TEMP:  79;                                

SCAPPOOSE      SUNNY     78  55  44 N13       29.94F                  
6HR MIN TEMP:  68; 6HR MAX TEMP:  79;                                

HILLSBORO      SUNNY     79  56  45 NE9       29.94F                  
6HR MIN TEMP:  67; 6HR MAX TEMP:  80;                                

AURORA         SUNNY     83  52  34 N7        29.94F                  
6HR MIN TEMP:  69; 6HR MAX TEMP:  83;                                

MCMINNVILLE    SUNNY     82  53  36 MISG      29.92F                  
6HR MIN TEMP:  67; 6HR MAX TEMP:  82;                                

SALEM          SUNNY     80  52  37 VRB7      29.92F                  
6HR MIN TEMP:  68; 6HR MAX TEMP:  81;                                

CORVALLIS      SUNNY     82  58  43 VRB3      29.93F                  
EUGENE         MOSUNNY   82  55  39 N8        29.93F                  
6HR MIN TEMP:  65; 6HR MAX TEMP:  82;                                

CRESWELL       SUNNY     81  55  41 VRB6      29.92F                  
$$

ORZ021-028-200100-
SOUTHWEST OREGON

  
CITY           SKY/WX    TMP DP  RH WIND       PRES   REMARKS
NORTH BEND     SUNNY     68  59  73 N16G24    30.00R                  
6HR MIN TEMP:  67; 6HR MAX TEMP:  70;                                

BROOKINGS      MOSUNNY   61  53  75 SE3       30.00S                  
ROSEBURG       SUNNY     85  55  35 NE12G17   29.91F                  
6HR MIN TEMP:  65; 6HR MAX TEMP:  85;                                

SEXTON SUMMIT  SUNNY     78  52  40 VRB3      30.04S                  
6HR MIN TEMP:  68; 6HR MAX TEMP:  80;                                

GRANTS PASS    FAIR      91  50  24 N7        29.89S                  
MEDFORD        SUNNY     93  48  21 W15       29.85F                  
6HR MIN TEMP:  75; 6HR MAX TEMP:  93;                                

$$

ORZ014>016-041-200100-
COLUMBIA GORGE

  
CITY           SKY/WX    TMP DP  RH WIND       PRES   REMARKS
TROUTDALE      SUNNY     81  53  37 W9        29.93F                  
6HR MIN TEMP:  67; 6HR MAX TEMP:  81;                                

HOOD RIVER     SUNNY     82  45  26 W7G18     29.88F                  
THE DALLES     SUNNY     88  51  28 W14       29.83F                  
6HR MIN TEMP:  75; 6HR MAX TEMP:  89;                                

$$

ORZ029>031-041-044-049-050-061>064-502-503-505>511-200100-
EASTERN OREGON

  
CITY           SKY/WX    TMP DP  RH WIND       PRES   REMARKS
MADRAS         SUNNY     88  41  19 N5        29.94F                  
REDMOND        SUNNY     89  40  17 N7        29.95S                  
6HR MIN TEMP:  77; 6HR MAX TEMP:  90;                                

BEND           SUNNY     88  37  16 NE7       29.96S                  
PRINEVILLE     SUNNY     86  37  17 N13       29.95S                  
KLAMATH FALLS  SUNNY     84  39  20 VRB6      30.00F                  
6HR MIN TEMP:  72; 6HR MAX TEMP:  85;                                

LAKEVIEW       SUNNY     84  26  12 S8        30.05F                  
HERMISTON      SUNNY     92  48  22 VRB7      29.83F                  
6HR MIN TEMP:  81; 6HR MAX TEMP:  92;                                

PENDLETON      SUNNY     89  43  20 NW10      29.88F                  
6HR MIN TEMP:  80; 6HR MAX TEMP:  89;                                

JOHN DAY       SUNNY     89  32  13 W7        29.96F                  
MEACHAM        SUNNY     80  43  26 VRB3      30.01F                  
6HR MIN TEMP:  72; 6HR MAX TEMP:  81;                                

LA GRANDE      SUNNY     88  45  22 NW12      29.93S                  
6HR MIN TEMP:  79; 6HR MAX TEMP:  90;                                

BAKER CITY     SUNNY     89  46  22 NW13      29.95S                  
6HR MIN TEMP:  80; 6HR MAX TEMP:  91;                                

BURNS          SUNNY     89  42  19 E6        29.98F                  
6HR MIN TEMP:  78; 6HR MAX TEMP:  91;                                

ROME             N/A     96  24   7 W9        29.93F HX  90           
6HR MIN TEMP:  85; 6HR MAX TEMP:  97;                                

ONTARIO        MOSUNNY   97  45  16 SE5       29.84F HX  93           
6HR MIN TEMP:  87; 6HR MAX TEMP:  98;                                

$$